| time (UTC) | temp F | wind direction | speed knots | gust knots | rain 1hr in | rain 24hr in | rain mn in | humidity % | barometer mb |
| 20260510071558 | 73 | 85 | 2.6 | 5.2 | 0.00 | 0.00 | 0.00 | 95 | 1009.1 |
| 20260510071248 | 73 | 85 | 3.5 | 6.1 | 0.00 | 0.00 | 0.00 | 95 | 1009.1 |
| 20260510070531 | 73 | 85 | 2.6 | 6.1 | 0.00 | 0.00 | 0.00 | 95 | 1009.2 |
| 20260510070003 | 73 | 85 | 2.6 | 5.2 | 0.00 | 0.00 | 0.00 | 94 | 1009.5 |
| 20260510065453 | 73 | 85 | 2.6 | 6.1 | 0.00 | 0.00 | 0.00 | 94 | 1009.5 |
| 20260510064949 | 74 | 85 | 3.5 | 6.1 | 0.00 | 0.00 | 0.00 | 95 | 1009.4 |
| 20260510064443 | 73 | 84 | 4.3 | 7.0 | 0.00 | 0.00 | 0.00 | 94 | 1009.4 |
| 20260510063918 | 73 | 84 | 3.5 | 7.0 | 0.00 | 0.00 | 0.00 | 94 | 1009.7 |
| 20260510063352 | 73 | 82 | 3.5 | 6.1 | 0.00 | 0.00 | 0.00 | 94 | 1009.7 |
| 20260510063104 | 73 | 82 | 3.5 | 5.2 | 0.00 | 0.00 | 0.00 | 93 | 1009.7 |
| 20260510062322 | 73 | 82 | 3.5 | 6.1 | 0.00 | 0.00 | 0.00 | 93 | 1009.9 |
| 20260510061820 | 73 | 82 | 3.5 | 6.1 | 0.00 | 0.00 | 0.00 | 93 | 1009.9 |
| 20260510061251 | 73 | 82 | 3.5 | 6.1 | 0.00 | 0.00 | 0.00 | 92 | 1009.9 |
| 20260510060743 | 73 | 82 | 4.3 | 7.0 | 0.00 | 0.00 | 0.00 | 92 | 1010.0 |
| 20260510060223 | 73 | 82 | 5.2 | 7.0 | 0.00 | 0.00 | 0.00 | 92 | 1010.1 |
| 20260510055720 | 73 | 82 | 5.2 | 7.8 | 0.00 | 0.00 | 0.00 | 91 | 1010.2 |
| 20260510055413 | 73 | 82 | 5.2 | 7.8 | 0.00 | 0.00 | 0.00 | 91 | 1010.2 |
| 20260510054649 | 73 | 83 | 4.3 | 7.0 | 0.00 | 0.00 | 0.00 | 90 | 1010.1 |
| 20260510054120 | 73 | 83 | 4.3 | 7.0 | 0.00 | 0.00 | 0.00 | 90 | 1010.0 |
| 20260510053619 | 74 | 83 | 3.5 | 7.0 | 0.00 | 0.00 | 0.00 | 90 | 1010.1 |
| 20260510053052 | 74 | 84 | 2.6 | 6.1 | 0.00 | 0.00 | 0.00 | 90 | 1010.1 |
| 20260510052814 | 74 | 84 | 3.5 | 6.1 | 0.00 | 0.00 | 0.00 | 89 | 1009.9 |
| 20260510052017 | 74 | 84 | 3.5 | 6.1 | 0.00 | 0.00 | 0.00 | 89 | 1010.1 |
| 20260510051520 | 74 | 84 | 3.5 | 7.0 | 0.00 | 0.00 | 0.00 | 89 | 1009.8 |
| 20260510051016 | 74 | 84 | 2.6 | 7.0 | 0.00 | 0.00 | 0.00 | 88 | 1009.7 |
| 20260510050509 | 74 | 84 | 3.5 | 6.1 | 0.00 | 0.00 | 0.00 | 88 | 1009.5 |
| 20260510045959 | 74 | 84 | 4.3 | 7.0 | 0.00 | 0.00 | 0.00 | 88 | 1009.5 |
| 20260510045438 | 74 | 84 | 4.3 | 7.0 | 0.00 | 0.00 | 0.00 | 88 | 1009.5 |
| 20260510044934 | 74 | 84 | 5.2 | 8.7 | 0.00 | 0.00 | 0.00 | 87 | 1009.5 |
| 20260510044402 | 75 | 84 | 4.3 | 8.7 | 0.00 | 0.00 | 0.00 | 86 | 1009.7 |
| 20260510043902 | 75 | 88 | 4.3 | 7.0 | 0.00 | 0.00 | 0.00 | 85 | 1009.7 |
| 20260510043354 | 76 | 88 | 4.3 | 7.0 | 0.00 | 0.00 | 0.00 | 84 | 1009.7 |
| 20260510042828 | 76 | 88 | 2.6 | 7.0 | 0.00 | 0.00 | 0.00 | 83 | 1009.7 |
| 20260510042301 | 77 | 138 | 1.7 | 4.3 | 0.00 | 0.00 | 0.00 | 82 | 1009.5 |
| 20260510042017 | 77 | 139 | 1.7 | 3.5 | 0.00 | 0.00 | 0.00 | 82 | 1009.3 |
| 20260510041258 | 77 | 139 | 1.7 | 3.5 | 0.00 | 0.00 | 0.00 | 82 | 1009.2 |
| 20260510041015 | 76 | 139 | 1.7 | 5.2 | 0.00 | 0.00 | 0.00 | 83 | 1009.3 |
| 20260510040217 | 76 | 139 | 2.6 | 5.2 | 0.00 | 0.00 | 0.00 | 82 | 1008.8 |
| 20260510035647 | 76 | 139 | 3.5 | 5.2 | 0.00 | 0.00 | 0.00 | 82 | 1008.6 |
| 20260510035120 | 77 | 139 | 3.5 | 5.2 | 0.00 | 0.00 | 0.00 | 82 | 1008.5 |
| 20260510034839 | 77 | 139 | 3.5 | 5.2 | 0.00 | 0.00 | 0.00 | 82 | 1008.6 |
| 20260510034051 | 77 | 139 | 3.5 | 5.2 | 0.00 | 0.00 | 0.00 | 81 | 1008.6 |
| 20260510033544 | 78 | 139 | 2.6 | 5.2 | 0.00 | 0.00 | 0.00 | 80 | 1008.5 |
| 20260510033303 | 78 | 138 | 2.6 | 5.2 | 0.00 | 0.00 | 0.00 | 79 | 1008.6 |
| 20260510032732 | 78 | 138 | 3.5 | 5.2 | 0.00 | 0.00 | 0.00 | 79 | 1008.5 |
| 20260510031947 | 79 | 138 | 3.5 | 5.2 | 0.00 | 0.00 | 0.00 | 79 | 1008.5 |
| 20260510031440 | 79 | 138 | 2.6 | 4.3 | 0.00 | 0.00 | 0.00 | 78 | 1008.4 |
| 20260510030934 | 79 | 138 | 1.7 | 4.3 | 0.00 | 0.00 | 0.00 | 78 | 1008.3 |
| 20260510030426 | 79 | 138 | 2.6 | 4.3 | 0.00 | 0.00 | 0.00 | 78 | 1008.4 |
| 20260510025905 | 80 | 138 | 2.6 | 4.3 | 0.00 | 0.00 | 0.00 | 77 | 1008.2 |
| 20260510025557 | 80 | 137 | 2.6 | 4.3 | 0.00 | 0.00 | 0.00 | 77 | 1008.2 |
| 20260510025055 | 80 | 137 | 2.6 | 4.3 | 0.00 | 0.00 | 0.00 | 77 | 1008.0 |
| 20260510024333 | 80 | 138 | 2.6 | 4.3 | 0.00 | 0.00 | 0.00 | 76 | 1008.1 |
| 20260510023829 | 80 | 138 | 1.7 | 4.3 | 0.00 | 0.00 | 0.00 | 77 | 1008.0 |
| 20260510023320 | 81 | 138 | 1.7 | 4.3 | 0.00 | 0.00 | 0.00 | 76 | 1008.1 |
| 20260510022749 | 81 | 138 | 1.7 | 4.3 | 0.00 | 0.00 | 0.00 | 76 | 1007.8 |
| 20260510022238 | 81 | 138 | 2.6 | 3.5 | 0.00 | 0.00 | 0.00 | 76 | 1007.9 |
| 20260510021725 | 81 | 138 | 2.6 | 4.3 | 0.00 | 0.00 | 0.00 | 76 | 1007.7 |
| 20260510021424 | 81 | 138 | 2.6 | 4.3 | 0.00 | 0.00 | 0.00 | 75 | 1007.8 |
| 20260510020655 | 82 | 138 | 2.6 | 6.1 | 0.00 | 0.00 | 0.00 | 75 | 1007.8 |
| 20260510020154 | 82 | 141 | 3.5 | 6.1 | 0.00 | 0.00 | 0.00 | 75 | 1007.8 |
| 20260510015905 | 82 | 141 | 3.5 | 6.1 | 0.00 | 0.00 | 0.00 | 75 | 1007.6 |
| 20260510015119 | 82 | 140 | 3.5 | 7.0 | 0.00 | 0.00 | 0.00 | 75 | 1007.6 |
| 20260510014551 | 82 | 138 | 3.5 | 7.0 | 0.00 | 0.00 | 0.00 | 75 | 1007.4 |
| 20260510014052 | 83 | 163 | 4.3 | 7.0 | 0.00 | 0.00 | 0.00 | 74 | 1007.3 |
| 20260510013550 | 83 | 153 | 5.2 | 8.7 | 0.00 | 0.00 | 0.00 | 74 | 1006.9 |
| 20260510013309 | 83 | 181 | 5.2 | 8.7 | 0.00 | 0.00 | 0.00 | 74 | 1006.6 |
| 20260510012541 | 83 | 148 | 5.2 | 11.3 | 0.00 | 0.00 | 0.00 | 74 | 1006.6 |
| 20260510012008 | 83 | 144 | 5.2 | 12.2 | 0.00 | 0.00 | 0.00 | 74 | 1006.4 |
| 20260510011440 | 84 | 173 | 5.2 | 9.6 | 0.00 | 0.00 | 0.00 | 73 | 1006.2 |
| 20260510010910 | 84 | 157 | 6.1 | 10.4 | 0.00 | 0.00 | 0.00 | 73 | 1006.2 |
| 20260510010405 | 84 | 188 | 6.1 | 10.4 | 0.00 | 0.00 | 0.00 | 73 | 1006.2 |
| 20260510005835 | 85 | 168 | 5.2 | 9.6 | 0.00 | 0.00 | 0.00 | 71 | 1006.4 |
| 20260510005309 | 86 | 186 | 4.3 | 8.7 | 0.00 | 0.00 | 0.00 | 70 | 1006.7 |
| 20260510004800 | 87 | 153 | 2.6 | 5.2 | 0.00 | 0.00 | 0.00 | 69 | 1006.9 |
| 20260510004259 | 87 | 154 | 2.6 | 5.2 | 0.00 | 0.00 | 0.00 | 67 | 1006.9 |
| 20260510003733 | 88 | 152 | 2.6 | 5.2 | 0.00 | 0.00 | 0.00 | 67 | 1006.8 |
| 20260510003230 | 88 | 152 | 2.6 | 6.1 | 0.00 | 0.00 | 0.00 | 66 | 1006.9 |
| 20260510002658 | 88 | 154 | 3.5 | 6.1 | 0.00 | 0.00 | 0.00 | 66 | 1006.8 |
| 20260510002147 | 89 | 155 | 3.5 | 7.8 | 0.00 | 0.00 | 0.00 | 66 | 1006.7 |
| 20260510001646 | 89 | 155 | 4.3 | 7.8 | 0.00 | 0.00 | 0.00 | 65 | 1006.6 |
| 20260510001122 | 89 | 150 | 5.2 | 7.0 | 0.00 | 0.00 | 0.00 | 65 | 1006.6 |
| 20260510000553 | 89 | 158 | 4.3 | 7.8 | 0.00 | 0.00 | 0.00 | 64 | 1006.5 |
| 20260510000024 | 89 | 174 | 4.3 | 8.7 | 0.00 | 0.00 | 0.00 | 64 | 1006.5 |
| 20260509235517 | 89 | 130 | 4.3 | 9.6 | 0.00 | 0.00 | 0.00 | 63 | 1006.5 |
| 20260509235015 | 89 | 171 | 5.2 | 10.4 | 0.00 | 0.00 | 0.00 | 63 | 1006.5 |
| 20260509234502 | 89 | 154 | 5.2 | 10.4 | 0.00 | 0.00 | 0.00 | 63 | 1006.5 |
| 20260509234231 | 90 | 128 | 5.2 | 9.6 | 0.00 | 0.00 | 0.00 | 63 | 1006.6 |
| 20260509233454 | 90 | 81 | 5.2 | 8.7 | 0.00 | 0.00 | 0.00 | 63 | 1006.6 |
| 20260509233146 | 90 | 170 | 6.1 | 9.6 | 0.00 | 0.00 | 0.00 | 62 | 1006.5 |
| 20260509231846 | 91 | 178 | 5.2 | 9.6 | 0.00 | 0.00 | 0.00 | 59 | 1006.4 |
| 20260509231539 | 91 | 98 | 5.2 | 9.6 | 0.00 | 0.00 | 0.00 | 59 | 1006.3 |
| 20260509231015 | 91 | 98 | 4.3 | 9.6 | 0.00 | 0.00 | 0.00 | 60 | 1006.3 |
| 20260509230247 | 91 | 150 | 4.3 | 9.6 | 0.00 | 0.00 | 0.00 | 61 | 1006.3 |
| 20260509225941 | 91 | 149 | 5.2 | 9.6 | 0.00 | 0.00 | 0.00 | 61 | 1006.2 |
| 20260509225211 | 91 | 179 | 5.2 | 9.6 | 0.00 | 0.00 | 0.00 | 60 | 1006.1 |
| 20260509224645 | 91 | 143 | 5.2 | 9.6 | 0.00 | 0.00 | 0.00 | 61 | 1006.3 |
| 20260509224111 | 90 | 107 | 5.2 | 10.4 | 0.00 | 0.00 | 0.00 | 62 | 1006.2 |
| 20260509223540 | 90 | 148 | 5.2 | 10.4 | 0.00 | 0.00 | 0.00 | 62 | 1006.2 |
| 20260509223029 | 91 | 132 | 4.3 | 8.7 | 0.00 | 0.00 | 0.00 | 62 | 1006.1 |
| 20260509222532 | 91 | 111 | 5.2 | 8.7 | 0.00 | 0.00 | 0.00 | 60 | 1006.1 |
| 20260509222013 | 91 | 76 | 5.2 | 11.3 | 0.00 | 0.00 | 0.00 | 60 | 1006.2 |
| 20260509221517 | 91 | 119 | 5.2 | 11.3 | 0.00 | 0.00 | 0.00 | 60 | 1006.2 |
| 20260509221230 | 91 | 103 | 5.2 | 12.2 | 0.00 | 0.00 | 0.00 | 60 | 1006.3 |
| 20260509220514 | 91 | 104 | 5.2 | 12.2 | 0.00 | 0.00 | 0.00 | 61 | 1006.3 |
| 20260509220014 | 91 | 94 | 4.3 | 7.8 | 0.00 | 0.00 | 0.00 | 62 | 1006.3 |
| 20260509215514 | 91 | 101 | 5.2 | 8.7 | 0.00 | 0.00 | 0.00 | 62 | 1006.4 |
| 20260509215014 | 91 | 99 | 5.2 | 10.4 | 0.00 | 0.00 | 0.00 | 62 | 1006.3 |
| 20260509214514 | 90 | 111 | 5.2 | 10.4 | 0.00 | 0.00 | 0.00 | 63 | 1006.3 |
| 20260509213940 | 91 | 68 | 5.2 | 7.8 | 0.00 | 0.00 | 0.00 | 62 | 1006.3 |
| 20260509213412 | 90 | 68 | 5.2 | 8.7 | 0.00 | 0.00 | 0.00 | 62 | 1006.4 |
| 20260509212841 | 91 | 74 | 4.3 | 9.6 | 0.00 | 0.00 | 0.00 | 63 | 1006.3 |
| 20260509212310 | 91 | 71 | 5.2 | 9.6 | 0.00 | 0.00 | 0.00 | 63 | 1006.3 |
| 20260509211737 | 91 | 86 | 6.1 | 9.6 | 0.00 | 0.00 | 0.00 | 62 | 1006.4 |
| 20260509211203 | 91 | 77 | 3.5 | 8.7 | 0.00 | 0.00 | 0.00 | 62 | 1006.4 |
| 20260509210656 | 91 | 92 | 2.6 | 6.1 | 0.00 | 0.00 | 0.00 | 63 | 1006.3 |
| 20260509210146 | 91 | 92 | 4.3 | 8.7 | 0.00 | 0.00 | 0.00 | 62 | 1006.4 |
| 20260509205629 | 91 | 101 | 4.3 | 8.7 | 0.00 | 0.00 | 0.00 | 61 | 1006.5 |
| 20260509205126 | 91 | 83 | 3.5 | 7.0 | 0.00 | 0.00 | 0.00 | 61 | 1006.4 |
| 20260509204853 | 91 | 83 | 3.5 | 7.0 | 0.00 | 0.00 | 0.00 | 61 | 1006.5 |
| 20260509203821 | 91 | 82 | 3.5 | 7.0 | 0.00 | 0.00 | 0.00 | 61 | 1006.6 |
| 20260509203052 | 91 | 35 | 3.5 | 7.8 | 0.00 | 0.00 | 0.00 | 61 | 1006.7 |
| 20260509202527 | 91 | 60 | 2.6 | 7.8 | 0.00 | 0.00 | 0.00 | 62 | 1006.7 |
| 20260509201959 | 90 | 81 | 2.6 | 7.0 | 0.00 | 0.00 | 0.00 | 63 | 1006.7 |
| 20260509201723 | 91 | 80 | 3.5 | 7.0 | 0.00 | 0.00 | 0.00 | 63 | 1006.8 |
| 20260509201003 | 91 | 80 | 4.3 | 8.7 | 0.00 | 0.00 | 0.00 | 63 | 1006.9 |
| 20260509200437 | 91 | 80 | 4.3 | 8.7 | 0.00 | 0.00 | 0.00 | 63 | 1006.9 |
| 20260509200131 | 92 | 90 | 1.7 | 7.0 | 0.00 | 0.00 | 0.00 | 62 | 1007.0 |
| 20260509195407 | 91 | 158 | 1.7 | 5.2 | 0.00 | 0.00 | 0.00 | 64 | 1007.2 |
| 20260509194904 | 90 | 158 | 2.6 | 5.2 | 0.00 | 0.00 | 0.00 | 65 | 1007.2 |
| 20260509194400 | 90 | 157 | 3.5 | 11.3 | 0.00 | 0.00 | 0.00 | 65 | 1007.2 |
| 20260509193859 | 90 | 157 | 3.5 | 11.3 | 0.00 | 0.00 | 0.00 | 66 | 1007.3 |
| 20260509193622 | 90 | 98 | 2.6 | 6.1 | 0.00 | 0.00 | 0.00 | 66 | 1007.3 |
| 20260509192835 | 90 | 77 | 2.6 | 5.2 | 0.00 | 0.00 | 0.00 | 65 | 1007.4 |
| 20260509192335 | 90 | 79 | 3.5 | 6.1 | 0.00 | 0.00 | 0.00 | 65 | 1007.3 |
| 20260509191305 | 89 | 80 | 2.6 | 7.0 | 0.00 | 0.00 | 0.00 | 65 | 1007.5 |
| 20260509190803 | 89 | 62 | 2.6 | 4.3 | 0.00 | 0.00 | 0.00 | 66 | 1007.5 |
| 20260509190236 | 89 | 61 | 2.6 | 7.0 | 0.00 | 0.00 | 0.00 | 67 | 1007.4 |
| 20260509185714 | 89 | 50 | 2.6 | 6.1 | 0.00 | 0.00 | 0.00 | 67 | 1007.5 |
| 20260509185431 | 89 | 355 | 1.7 | 4.3 | 0.00 | 0.00 | 0.00 | 68 | 1007.7 |
| 20260509184706 | 89 | 355 | 1.7 | 4.3 | 0.00 | 0.00 | 0.00 | 68 | 1007.6 |
| 20260509184204 | 89 | 355 | 2.6 | 6.1 | 0.00 | 0.00 | 0.00 | 69 | 1007.8 |
| 20260509183656 | 88 | 351 | 2.6 | 6.1 | 0.00 | 0.00 | 0.00 | 69 | 1007.8 |
| 20260509183152 | 88 | 31 | 1.7 | 6.1 | 0.00 | 0.00 | 0.00 | 70 | 1007.7 |
| 20260509182630 | 88 | 301 | 1.7 | 6.1 | 0.00 | 0.00 | 0.00 | 70 | 1007.9 |
| 20260509182129 | 87 | 301 | 3.5 | 7.8 | 0.00 | 0.00 | 0.00 | 71 | 1007.9 |
| 20260509181630 | 87 | 302 | 2.6 | 7.8 | 0.00 | 0.00 | 0.00 | 72 | 1008.1 |
| 20260509180547 | 86 | 296 | 2.6 | 4.3 | 0.00 | 0.00 | 0.00 | 72 | 1008.1 |
| 20260509180047 | 87 | 296 | 3.5 | 7.0 | 0.00 | 0.00 | 0.00 | 73 | 1008.3 |
| 20260509175527 | 86 | 5 | 3.5 | 7.0 | 0.00 | 0.00 | 0.00 | 73 | 1008.5 |
| 20260509175024 | 87 | 342 | 2.6 | 7.0 | 0.00 | 0.00 | 0.00 | 72 | 1008.4 |
| 20260509174456 | 87 | 351 | 1.7 | 4.3 | 0.00 | 0.00 | 0.00 | 72 | 1008.4 |
| 20260509173948 | 86 | 280 | 1.7 | 5.2 | 0.00 | 0.00 | 0.00 | 72 | 1008.7 |
| 20260509173429 | 86 | 280 | 2.6 | 6.1 | 0.00 | 0.00 | 0.00 | 72 | 1008.7 |
| 20260509173122 | 86 | 304 | 4.3 | 7.8 | 0.00 | 0.00 | 0.00 | 74 | 1008.6 |
| 20260509172548 | 85 | 355 | 3.5 | 7.8 | 0.00 | 0.00 | 0.00 | 75 | 1008.7 |
| 20260509171815 | 85 | 46 | 3.5 | 7.0 | 0.00 | 0.00 | 0.00 | 75 | 1008.6 |
| 20260509171314 | 85 | 27 | 3.5 | 7.8 | 0.00 | 0.00 | 0.00 | 75 | 1008.7 |
| 20260509170806 | 85 | 355 | 3.5 | 7.8 | 0.00 | 0.00 | 0.00 | 75 | 1008.7 |
| 20260509170307 | 85 | 342 | 2.6 | 7.0 | 0.00 | 0.00 | 0.00 | 75 | 1008.9 |
| 20260509165746 | 85 | 338 | 4.3 | 7.8 | 0.00 | 0.00 | 0.00 | 75 | 1008.7 |
| 20260509165220 | 85 | 337 | 3.5 | 7.8 | 0.00 | 0.00 | 0.00 | 76 | 1008.7 |
| 20260509164912 | 84 | 348 | 3.5 | 6.1 | 0.00 | 0.00 | 0.00 | 76 | 1008.7 |
| 20260509164118 | 84 | 285 | 2.6 | 6.1 | 0.00 | 0.00 | 0.00 | 76 | 1008.8 |
| 20260509163605 | 84 | 17 | 2.6 | 6.1 | 0.00 | 0.00 | 0.00 | 77 | 1008.4 |
| 20260509163039 | 83 | 26 | 2.6 | 5.2 | 0.00 | 0.00 | 0.00 | 80 | 1008.5 |
| 20260509162748 | 83 | 5 | 3.5 | 6.1 | 0.00 | 0.00 | 0.00 | 79 | 1008.6 |
| 20260509162028 | 83 | 9 | 3.5 | 6.1 | 0.00 | 0.00 | 0.00 | 80 | 1008.5 |
| 20260509161527 | 82 | 295 | 3.5 | 6.1 | 0.00 | 0.00 | 0.00 | 80 | 1008.6 |
| 20260509161221 | 82 | 355 | 3.5 | 6.1 | 0.00 | 0.00 | 0.00 | 81 | 1008.7 |
| 20260509160436 | 82 | 5 | 3.5 | 3.5 | 0.00 | 0.00 | 0.00 | 81 | 1008.8 |
| 20260509155951 | 82 | 5 | 2.6 | 5.2 | 0.00 | 0.00 | 0.00 | 83 | 1008.7 |
| 20260509155425 | 81 | 290 | 2.6 | 5.2 | 0.00 | 0.00 | 0.00 | 83 | 1008.8 |
| 20260509154904 | 81 | 286 | 2.6 | 6.1 | 0.00 | 0.00 | 0.00 | 85 | 1009.0 |
| 20260509154353 | 80 | 237 | 1.7 | 5.2 | 0.00 | 0.00 | 0.00 | 87 | 1008.8 |
| 20260509153826 | 80 | 237 | 1.7 | 5.2 | 0.00 | 0.00 | 0.00 | 88 | 1008.9 |
| 20260509153308 | 79 | 242 | 1.7 | 4.3 | 0.00 | 0.00 | 0.00 | 89 | 1009.1 |
| 20260509152737 | 79 | 242 | 2.6 | 4.3 | 0.00 | 0.00 | 0.00 | 90 | 1008.8 |
| 20260509152233 | 78 | 240 | 2.6 | 4.3 | 0.00 | 0.00 | 0.00 | 91 | 1009.1 |
| 20260509151730 | 78 | 171 | 3.5 | 5.2 | 0.00 | 0.00 | 0.00 | 91 | 1008.5 |
| 20260509151205 | 78 | 171 | 3.5 | 6.1 | 0.00 | 0.00 | 0.00 | 92 | 1008.2 |
| 20260509150642 | 78 | 186 | 1.7 | 6.1 | 0.00 | 0.00 | 0.00 | 92 | 1007.7 |
| 20260509150134 | 78 | 242 | 0.0 | 3.5 | 0.00 | 0.00 | 0.00 | 92 | 1008.1 |
| 20260509145607 | 78 | 243 | 1.7 | 3.5 | 0.00 | 0.00 | 0.00 | 93 | 1008.4 |
| 20260509145042 | 78 | 242 | 2.6 | 4.3 | 0.00 | 0.00 | 0.00 | 93 | 1008.2 |
| 20260509144521 | 78 | 242 | 3.5 | 5.2 | 0.00 | 0.00 | 0.00 | 93 | 1008.2 |
| 20260509144020 | 78 | 243 | 2.6 | 5.2 | 0.00 | 0.00 | 0.00 | 93 | 1008.2 |
| 20260509143747 | 78 | 259 | 1.7 | 4.3 | 0.00 | 0.00 | 0.00 | 93 | 1008.4 |
| 20260509143002 | 78 | 259 | 1.7 | 2.6 | 0.00 | 0.00 | 0.00 | 93 | 1008.5 |
| 20260509142452 | 78 | 259 | 1.7 | 3.5 | 0.00 | 0.00 | 0.00 | 93 | 1008.5 |
| 20260509141931 | 78 | 259 | 2.6 | 3.5 | 0.00 | 0.00 | 0.00 | 93 | 1008.5 |
| 20260509141404 | 77 | 259 | 2.6 | 6.1 | 0.00 | 0.00 | 0.00 | 94 | 1008.2 |
| 20260509140838 | 78 | 0 | 2.6 | 5.2 | 0.00 | 0.00 | 0.00 | 94 | 1007.9 |
| 20260509140309 | 77 | 5 | 1.7 | 3.5 | 0.00 | 0.00 | 0.00 | 94 | 1007.9 |
| 20260509135738 | 77 | 5 | 0.9 | 2.6 | 0.00 | 0.00 | 0.00 | 94 | 1008.1 |
| 20260509135235 | 77 | 9 | 0.0 | 1.7 | 0.00 | 0.00 | 0.00 | 94 | 1008.4 |
| 20260509134712 | 77 | 9 | 0.9 | 3.5 | 0.00 | 0.00 | 0.00 | 94 | 1008.4 |
| 20260509134150 | 77 | 9 | 0.9 | 3.5 | 0.00 | 0.00 | 0.00 | 94 | 1008.5 |
| 20260509133650 | 77 | 9 | 1.7 | 5.2 | 0.00 | 0.00 | 0.00 | 94 | 1008.5 |
| 20260509133151 | 77 | 9 | 2.6 | 5.2 | 0.00 | 0.00 | 0.00 | 94 | 1008.2 |
| 20260509132627 | 77 | 5 | 2.6 | 4.3 | 0.00 | 0.00 | 0.00 | 94 | 1008.3 |
| 20260509132055 | 77 | 5 | 1.7 | 4.3 | 0.00 | 0.00 | 0.00 | 94 | 1008.4 |
| 20260509131556 | 77 | 5 | 2.6 | 5.2 | 0.00 | 0.00 | 0.00 | 95 | 1008.2 |
| 20260509131301 | 77 | 5 | 3.5 | 6.1 | 0.00 | 0.00 | 0.00 | 95 | 1008.4 |
| 20260509130526 | 77 | 340 | 2.6 | 5.2 | 0.00 | 0.00 | 0.00 | 95 | 1008.3 |
| 20260509130025 | 77 | 340 | 2.6 | 8.7 | 0.00 | 0.00 | 0.00 | 95 | 1008.5 |
| 20260509125523 | 76 | 339 | 4.3 | 8.7 | 0.00 | 0.00 | 0.00 | 95 | 1008.3 |
| 20260509125026 | 76 | 344 | 4.3 | 11.3 | 0.00 | 0.00 | 0.00 | 96 | 1008.3 |
| 20260509124523 | 76 | 329 | 5.2 | 11.3 | 0.00 | 0.00 | 0.00 | 96 | 1008.6 |
| 20260509124013 | 76 | 317 | 7.0 | 12.2 | 0.00 | 0.00 | 0.00 | 97 | 1008.6 |
| 20260509123511 | 76 | 283 | 7.8 | 13.9 | 0.00 | 0.00 | 0.00 | 97 | 1008.4 |
| 20260509123014 | 76 | 321 | 6.1 | 14.8 | 0.00 | 0.00 | 0.00 | 97 | 1008.2 |
| 20260509122718 | 76 | 14 | 4.3 | 14.8 | 0.00 | 0.00 | 0.00 | 98 | 1007.9 |
| 20260509121951 | 76 | 126 | 7.8 | 22.6 | 0.00 | 0.00 | 0.00 | 98 | 1007.4 |
| 20260509121455 | 76 | 146 | 13.0 | 22.6 | 0.00 | 0.00 | 0.00 | 98 | 1006.1 |
| 20260509120940 | 76 | 87 | 13.0 | 21.7 | 0.00 | 0.00 | 0.00 | 98 | 1005.3 |
| 20260509120434 | 76 | 105 | 7.8 | 17.4 | 0.00 | 0.00 | 0.00 | 98 | 1006.2 |
| 20260509115916 | 76 | 107 | 3.5 | 11.3 | 0.00 | 0.00 | 0.00 | 98 | 1007.6 |
| 20260509115608 | 76 | 76 | 4.3 | 11.3 | 0.00 | 0.00 | 0.00 | 98 | 1008.4 |
| 20260509115104 | 76 | 119 | 6.1 | 11.3 | 0.00 | 0.00 | 0.00 | 98 | 1008.4 |
| 20260509114326 | 75 | 121 | 7.0 | 12.2 | 0.00 | 0.00 | 0.00 | 98 | 1008.4 |
| 20260509113828 | 75 | 173 | 6.1 | 12.2 | 0.00 | 0.00 | 0.00 | 98 | 1008.5 |
| 20260509113326 | 76 | 161 | 5.2 | 9.6 | 0.00 | 0.00 | 0.00 | 98 | 1008.8 |
| 20260509112824 | 76 | 173 | 4.3 | 9.6 | 0.00 | 0.00 | 0.00 | 98 | 1008.8 |
| 20260509112321 | 76 | 138 | 5.2 | 9.6 | 0.00 | 0.00 | 0.00 | 98 | 1008.5 |
| 20260509111755 | 76 | 156 | 6.1 | 10.4 | 0.00 | 0.00 | 0.00 | 98 | 1008.4 |
| 20260509110724 | 76 | 101 | 2.6 | 6.1 | 0.00 | 0.00 | 0.00 | 98 | 1008.4 |
| 20260509110224 | 76 | 100 | 2.6 | 6.1 | 0.00 | 0.00 | 0.00 | 98 | 1008.4 |
| 20260509105704 | 76 | 71 | 1.7 | 6.1 | 0.00 | 0.00 | 0.00 | 98 | 1008.3 |
| 20260509105206 | 76 | 131 | 1.7 | 4.3 | 0.00 | 0.00 | 0.00 | 98 | 1008.3 |
| 20260509104648 | 76 | 131 | 3.5 | 7.8 | 0.00 | 0.00 | 0.00 | 98 | 1007.8 |
| 20260509104143 | 76 | 131 | 4.3 | 7.8 | 0.00 | 0.00 | 0.00 | 98 | 1007.7 |
| 20260509103645 | 76 | 111 | 2.6 | 6.1 | 0.00 | 0.00 | 0.00 | 98 | 1007.8 |
| 20260509103135 | 76 | 111 | 1.7 | 3.5 | 0.00 | 0.00 | 0.00 | 98 | 1008.1 |
| 20260509102856 | 76 | 111 | 0.9 | 3.5 | 0.00 | 0.00 | 0.00 | 98 | 1008.1 |
| 20260509102117 | 76 | 111 | 0.0 | 2.6 | 0.00 | 0.00 | 0.00 | 98 | 1008.2 |
| 20260509101613 | 76 | 111 | 0.9 | 3.5 | 0.00 | 0.00 | 0.00 | 98 | 1008.3 |
| 20260509101116 | 76 | 111 | 1.7 | 3.5 | 0.00 | 0.00 | 0.00 | 98 | 1007.9 |
| 20260509100551 | 76 | 111 | 1.7 | 3.5 | 0.00 | 0.00 | 0.00 | 98 | 1007.4 |
| 20260509100020 | 76 | 111 | 0.9 | 3.5 | 0.00 | 0.00 | 0.00 | 98 | 1007.6 |
| 20260509095521 | 76 | 111 | 0.9 | 2.6 | 0.00 | 0.00 | 0.00 | 98 | 1007.8 |
| 20260509094950 | 76 | 111 | 1.7 | 3.5 | 0.00 | 0.00 | 0.00 | 98 | 1007.7 |
| 20260509094427 | 76 | 111 | 0.9 | 3.5 | 0.00 | 0.00 | 0.00 | 98 | 1007.9 |
| 20260509093909 | 76 | 111 | 0.9 | 2.6 | 0.00 | 0.00 | 0.00 | 98 | 1008.0 |
| 20260509093639 | 76 | 111 | 0.9 | 2.6 | 0.00 | 0.00 | 0.00 | 98 | 1007.7 |
| 20260509092853 | 76 | 111 | 0.9 | 2.6 | 0.00 | 0.00 | 0.00 | 98 | 1007.6 |
| 20260509092350 | 76 | 111 | 1.7 | 2.6 | 0.00 | 0.00 | 0.00 | 98 | 1007.5 |
| 20260509092120 | 76 | 111 | 1.7 | 3.5 | 0.00 | 0.00 | 0.00 | 98 | 1007.7 |
| 20260509091546 | 76 | 111 | 1.7 | 3.5 | 0.00 | 0.00 | 0.00 | 98 | 1007.6 |
| 20260509090816 | 76 | 111 | 1.7 | 3.5 | 0.00 | 0.00 | 0.00 | 98 | 1007.2 |
| 20260509090244 | 76 | 111 | 1.7 | 3.5 | 0.00 | 0.00 | 0.00 | 98 | 1006.9 |
| 20260509085725 | 76 | 111 | 1.7 | 3.5 | 0.00 | 0.00 | 0.00 | 98 | 1006.8 |
| 20260509085220 | 76 | 111 | 1.7 | 3.5 | 0.00 | 0.00 | 0.00 | 98 | 1006.9 |
| 20260509084942 | 76 | 111 | 1.7 | 4.3 | 0.00 | 0.00 | 0.00 | 98 | 1006.9 |
| 20260509084206 | 76 | 111 | 2.6 | 7.0 | 0.00 | 0.00 | 0.00 | 98 | 1006.9 |
| 20260509083706 | 76 | 111 | 3.5 | 7.0 | 0.00 | 0.00 | 0.00 | 98 | 1006.8 |
| 20260509083201 | 76 | 111 | 3.5 | 6.1 | 0.00 | 0.00 | 0.00 | 98 | 1007.1 |
| 20260509082634 | 76 | 111 | 3.5 | 6.1 | 0.00 | 0.00 | 0.00 | 98 | 1007.3 |
| 20260509082328 | 76 | 110 | 3.5 | 7.0 | 0.00 | 0.00 | 0.00 | 98 | 1007.3 |
| 20260509081532 | 76 | 109 | 3.5 | 7.0 | 0.00 | 0.00 | 0.00 | 98 | 1007.3 |
| 20260509081221 | 76 | 109 | 3.5 | 7.0 | 0.00 | 0.00 | 0.00 | 98 | 1007.3 |
| 20260509080501 | 76 | 134 | 3.5 | 7.8 | 0.00 | 0.00 | 0.00 | 98 | 1007.5 |
| 20260509075957 | 76 | 132 | 3.5 | 7.8 | 0.00 | 0.00 | 0.00 | 98 | 1007.5 |
| 20260509075435 | 76 | 126 | 4.3 | 8.7 | 0.00 | 0.00 | 0.00 | 98 | 1007.4 |
| 20260509074910 | 76 | 117 | 4.3 | 8.7 | 0.00 | 0.00 | 0.00 | 98 | 1007.6 |
| 20260509074345 | 76 | 123 | 3.5 | 7.8 | 0.00 | 0.00 | 0.00 | 98 | 1007.7 |
| 20260509073841 | 76 | 120 | 3.5 | 7.0 | 0.00 | 0.00 | 0.00 | 98 | 1007.8 |
| 20260509073525 | 76 | 115 | 3.5 | 6.1 | 0.00 | 0.00 | 0.00 | 98 | 1007.9 |
| 20260509072742 | 76 | 113 | 2.6 | 4.3 | 0.00 | 0.00 | 0.00 | 97 | 1008.1 |
| 20260509072231 | 76 | 112 | 1.7 | 3.5 | 0.00 | 0.00 | 0.00 | 97 | 1008.1 |